[[{"header":{"parameterUnit":"m.s-1","parameterCategory":1,"la1":30.2991,"la2":30.254,"lo1":-89.0895,"lo2":-89.0444,"dy":0.0017,"dx":0.0017,"nx":28,"ny":28,"refTime":"2024-08-12T21:00:00:Z","depth":0,"parameterNumber":2,"parameterNumberName":"U-component_of_WINDS"},"data":[0,0,0,0,0,0,0,0,0,0,0,0,0,0,0,0,0,0,0,0,0,0,0,0,0,0,0,0,0,0,0,0,0,0,0,0,0,0,0,0,0,0,0,0,0,0,0,0,0,0,0,0,0,0,0,0,0,0,4.0409,4.0409,0,4.0483,4.0484,4.0484,4.0398,4.0395,4.0392,4.0389,4.0464,4.0469,4.0474,0,0,0,0,0,0,0,0,0,0,0,0,0,4.019,4.0194,4.0409,4.041,4.041,4.0483,4.0484,4.0485,4.0399,4.0395,4.0391,4.0388,4.0463,4.0469,4.0475,0,0,0,0,0,0,0,0,0,0,0,0,0,4.0277,4.0196,4.0408,4.0376,4.0374,4.0482,4.0484,4.0485,4.04,4.0395,4.039,4.0386,4.0461,4.0468,4.0475,4.0618,0,0,4.0498,4.0502,0,0,0,0,0,0,0,0,4.0272,4.0285,4.038,4.0379,4.0377,4.0426,4.0434,4.053,4.0401,4.039,4.0389,4.0383,4.0456,4.0463,4.0488,4.0622,4.0625,4.0499,4.0504,4.0507,4.0509,0,0,0,0,0,0,0,4.0266,4.0281,4.0438,4.0382,4.038,4.0357,4.0364,4.0452,4.0449,4.0391,4.0385,4.0395,4.0454,4.0481,4.0489,4.0626,4.0499,4.0505,4.051,4.0513,4.0877,4.0882,0,0,0,0,0,0,4.0264,4.0277,4.0435,4.044,4.0311,4.0365,4.0373,4.0415,4.0448,4.0448,4.0399,4.039,4.047,4.048,4.0491,4.0657,4.0507,4.0514,4.0518,4.0872,4.0878,4.0883,0,0,0,0,0,0,4.026,4.0279,4.0432,4.0357,4.0375,4.0374,4.0422,4.0419,4.0446,4.0454,4.0453,4.0427,4.0467,4.0481,4.0586,4.0658,4.0517,4.0524,4.0865,4.0873,4.0881,4.0992,0,0,0,0,0,0,4.0254,4.0278,4.0333,4.0359,4.0379,4.0528,4.0427,4.0424,4.0459,4.0449,4.048,4.048,4.0464,4.0576,4.0594,4.0666,4.053,4.0859,4.0869,4.0878,4.0982,4.1003,4.1021,0,0,0,0,0,4.0246,4.0362,4.0336,4.0356,4.0448,4.0532,4.0544,4.0522,4.0466,4.052,4.0524,4.048,4.0648,4.0587,4.0607,4.0683,4.0854,4.0866,4.0877,4.0973,4.0999,4.102,0,0,0,0,0,0,4.0346,4.0365,4.0337,4.0465,4.0497,4.0517,4.0586,4.0551,4.06,4.0588,4.056,4.0568,4.0679,4.0692,4.0624,4.0821,4.0742,4.0758,4.0808,4.0832,4.0851,4.0844,4.0536,0,0,0,0,0,4.0383,4.045,4.0463,4.0575,4.0593,4.0587,4.0623,4.0603,4.0636,4.0649,4.0661,4.0694,4.0754,4.0794,4.085,4.0984,4.0988,4.1046,4.1065,4.1081,4.1094,4.1162,4.1187,4.0921,4.0921,4.0921,0,0,4.046,4.0479,4.0523,4.0595,4.0618,4.0687,4.0599,4.0676,4.0726,4.0661,4.076,4.0771,4.0805,4.0925,4.0978,4.0939,4.1169,4.1096,4.1108,4.1113,4.1176,4.1202,4.1224,4.0929,4.0928,4.0927,0,0,4.0634,4.0657,4.075,4.0775,4.081,4.0805,4.0827,4.0853,4.0856,4.0956,4.0907,4.0966,4.1071,4.1096,4.1123,4.1304,4.1263,4.1324,4.1423,4.149,4.151,4.1529,4.159,4.1612,4.1337,4.1338,4.1338,0,4.0725,4.0827,4.0803,4.0883,4.0914,4.0858,4.0951,4.0976,4.1028,4.1051,4.1006,4.1134,4.1154,4.1276,4.132,4.1345,4.1367,4.1319,4.151,4.1528,4.1544,4.1602,4.1626,4.1344,4.1344,4.1343,4.1342,0,4.0935,4.1006,4.1078,4.1128,4.1168,4.1255,4.1242,4.1285,4.1262,4.1261,4.1361,4.1383,4.144,4.1468,4.1448,4.1587,4.1561,4.1514,4.1433,4.1577,4.163,4.1653,4.1354,4.1352,4.135,4.1348,0,0,4.1174,4.1208,4.1235,4.1255,4.1289,4.1343,4.1426,4.1482,4.1518,4.1556,4.1622,4.1711,4.1666,4.1696,4.1678,4.1736,4.1874,4.1681,4.1681,4.1713,4.2024,4.2057,4.2084,4.1848,4.1852,4.1855,4.202,0,4.1346,4.1489,4.1468,4.1605,4.1668,4.1615,4.1686,4.1714,4.1715,4.1768,4.1769,4.1831,4.1769,4.1786,4.1843,4.1845,4.1935,4.1833,4.1906,4.1909,4.1896,4.2112,4.2148,4.2303,4.2041,4.2045,4.2048,0,4.1566,4.1609,4.1752,4.1773,4.1799,4.1864,4.1911,4.1963,4.1993,4.1989,4.2022,4.1991,4.2072,4.1992,4.21,4.2031,4.206,4.2066,4.2071,4.2075,4.1985,4.2118,4.2352,4.2374,4.2081,4.2078,4.2076,0,4.1721,4.1816,4.1913,4.1932,4.196,4.2006,4.202,4.2044,4.2078,4.212,4.214,4.2191,4.2219,4.2258,4.2241,4.2185,4.2352,4.2271,4.2348,4.2349,4.2384,4.2381,4.2622,4.2408,4.2408,4.2408,4.2407,0,4.1913,4.2002,4.1982,4.2042,4.2138,4.2113,4.2209,4.2216,4.2238,4.2296,4.2254,4.231,4.2286,4.2339,4.2327,4.2416,4.243,4.2427,4.2422,4.2429,4.2429,4.2446,4.2433,4.2414,4.2412,4.2411,4.241,0,4.2102,4.2093,4.2194,4.2211,4.2218,4.2288,4.2302,4.2356,4.2353,4.2427,4.2443,4.2439,4.2499,4.2487,4.2554,4.2545,4.2656,4.264,4.2646,4.2641,4.2717,4.2709,4.2975,4.3006,4.2775,4.2778,4.2779,0,4.2224,4.229,4.2314,4.235,4.2366,4.2425,4.2458,4.2436,4.2472,4.2509,4.2558,4.2615,4.2658,4.2757,4.2758,4.2808,4.2791,4.288,4.2798,4.2801,4.2787,4.2782,4.2787,4.2896,4.2898,4.2901,4.2902,0,4.2439,4.2431,4.2481,4.2529,4.2569,4.2606,4.2639,4.2671,4.265,4.2693,4.2754,4.2788,4.2854,4.291,4.2955,4.2968,4.2931,4.2929,4.2948,4.2954,4.2954,4.2951,4.2687,4.2922,4.292,4.2919,4.2918,4.2917,4.2596,4.2651,4.2675,4.2731,4.2753,4.2784,4.2835,4.2837,4.2888,4.294,4.2924,4.2992,4.3016,4.3074,4.3092,4.3143,4.311,4.3139,4.3146,4.3153,4.316,4.2948,4.3152,4.3152,4.3151,4.3151,4.315,0,4.2806,4.2818,4.287,4.2916,4.296,4.2922,4.2955,4.2993,4.3054,4.308,4.3123,4.3191,4.3244,4.325,4.3299,4.3339,4.3323,4.3352,4.3347,4.335,4.319,4.3166,4.3364,4.3364,4.3364,4.3364,4.3364,4.3364,4.292,4.301,4.3004,4.3103,4.3115,4.3181,4.3202,4.323,4.325,4.3327,4.3371,4.3374,4.3391,4.3441,4.3486,4.3486,4.3505,4.354,4.3534,4.3383,4.3362,4.3341,4.3319,4.3545,4.3546,4.3689,4.369,4.3691]},{"header":{"parameterUnit":"m.s-1","parameterCategory":1,"la1":30.2991,"la2":30.254,"lo1":-89.0895,"lo2":-89.0444,"dy":0.0017,"dx":0.0017,"nx":28,"ny":28,"refTime":"2024-08-12T21:00:00:Z","depth":0,"parameterNumber":3,"parameterNumberName":"V-component_of_WINDS"},"data":[0,0,0,0,0,0,0,0,0,0,0,0,0,0,0,0,0,0,0,0,0,0,0,0,0,0,0,0,0,0,0,0,0,0,0,0,0,0,0,0,0,0,0,0,0,0,0,0,0,0,0,0,0,0,0,0,0,0,2.4895,2.4896,0,2.4987,2.4988,2.4989,2.498,2.4978,2.4977,2.4975,2.5068,2.5071,2.5075,0,0,0,0,0,0,0,0,0,0,0,0,0,2.4709,2.4712,2.4895,2.4896,2.4897,2.4987,2.4988,2.4989,2.498,2.4978,2.4976,2.4975,2.5066,2.5071,2.5075,0,0,0,0,0,0,0,0,0,0,0,0,0,2.4794,2.4714,2.4895,2.4903,2.4905,2.4987,2.4988,2.499,2.498,2.4978,2.4976,2.4974,2.5065,2.507,2.5076,2.5154,0,0,2.5093,2.5096,0,0,0,0,0,0,0,0,2.4789,2.4801,2.4901,2.4903,2.4905,2.497,2.4956,2.5045,2.4981,2.4952,2.4975,2.4973,2.5037,2.5044,2.5066,2.5158,2.5162,2.5094,2.5097,2.51,2.5101,0,0,0,0,0,0,0,2.4783,2.4797,2.4931,2.4903,2.4905,2.4902,2.4912,2.4973,2.5005,2.4954,2.4954,2.4965,2.5037,2.5061,2.5068,2.5164,2.5094,2.5099,2.5102,2.5105,2.5322,2.5325,0,0,0,0,0,0,2.4776,2.4792,2.4928,2.4934,2.4841,2.4907,2.4918,2.4951,2.5004,2.501,2.4966,2.4964,2.5052,2.5062,2.5072,2.5165,2.51,2.5105,2.5108,2.532,2.5323,2.5326,0,0,0,0,0,0,2.4772,2.4788,2.4925,2.4863,2.488,2.4912,2.495,2.4954,2.4978,2.5014,2.5019,2.4985,2.5051,2.5064,2.5133,2.5169,2.5108,2.5113,2.5317,2.5321,2.5324,2.5354,0,0,0,0,0,0,2.4767,2.4787,2.4818,2.4864,2.4884,2.4986,2.4952,2.4957,2.4988,2.4985,2.5032,2.5038,2.505,2.5125,2.5139,2.5175,2.5117,2.5314,2.5319,2.5323,2.535,2.5358,2.5365,0,0,0,0,0,2.476,2.4822,2.4819,2.4836,2.4923,2.4988,2.4999,2.5012,2.4991,2.5021,2.5044,2.5037,2.5162,2.5132,2.5148,2.5186,2.5312,2.5318,2.5323,2.5347,2.5357,2.5365,0,0,0,0,0,0,2.4779,2.4829,2.4826,2.4905,2.4942,2.4986,2.5026,2.5023,2.5067,2.5062,2.5076,2.5087,2.5157,2.5179,2.5144,2.5264,2.5234,2.5243,2.5247,2.5257,2.5264,2.5257,2.5122,0,0,0,0,0,2.4793,2.4842,2.4882,2.4949,2.4968,2.4993,2.5022,2.5029,2.5068,2.5084,2.5112,2.5149,2.5197,2.5228,2.5274,2.5353,2.5363,2.5387,2.5395,2.5401,2.5408,2.545,2.5461,2.5343,2.5343,2.5343,0,0,2.4821,2.4854,2.4885,2.4953,2.4983,2.5033,2.5007,2.5061,2.5098,2.5092,2.5159,2.5181,2.5223,2.5298,2.5332,2.5318,2.5443,2.5408,2.5412,2.5416,2.5457,2.5468,2.5478,2.5347,2.5346,2.5346,0,0,2.4898,2.4929,2.4987,2.5017,2.5062,2.5079,2.5092,2.5137,2.5151,2.5219,2.5215,2.5258,2.5341,2.5371,2.5397,2.5483,2.5478,2.5498,2.5537,2.5578,2.5587,2.5595,2.5625,2.5636,2.5505,2.5505,2.5505,0,2.4928,2.5004,2.5017,2.5071,2.5101,2.5098,2.5155,2.5184,2.5242,2.5261,2.5245,2.5348,2.5376,2.5457,2.5478,2.5499,2.5514,2.5493,2.5585,2.5593,2.5601,2.563,2.5641,2.5507,2.5507,2.5507,2.5507,0,2.5037,2.5089,2.513,2.5186,2.522,2.5276,2.5297,2.533,2.5333,2.5351,2.5419,2.5453,2.5505,2.5525,2.5529,2.5605,2.5595,2.5582,2.5552,2.5614,2.5641,2.5652,2.551,2.551,2.5509,2.5508,0,0,2.513,2.5191,2.5206,2.523,2.5279,2.532,2.5374,2.5426,2.5453,2.5493,2.5538,2.5607,2.5595,2.5624,2.5631,2.5667,2.5732,2.5649,2.565,2.5663,2.5817,2.5826,2.5839,2.5728,2.5731,2.5732,2.5813,0,2.5211,2.5309,2.5321,2.5408,2.5455,2.5452,2.55,2.5534,2.5552,2.5594,2.5613,2.5662,2.5642,2.566,2.5695,2.5717,2.5763,2.5711,2.577,2.5772,2.5759,2.5853,2.5863,2.5938,2.5824,2.5825,2.5827,0,2.5319,2.5361,2.5452,2.5493,2.5514,2.5556,2.5603,2.5644,2.5683,2.5693,2.5725,2.5728,2.5783,2.5751,2.5827,2.5791,2.5816,2.583,2.5833,2.5839,2.5803,2.586,2.5962,2.5973,2.5844,2.5842,2.5841,0,2.5375,2.5455,2.552,2.5541,2.5591,2.5621,2.5643,2.5679,2.5709,2.5749,2.5768,2.5815,2.5841,2.5876,2.589,2.5866,2.5965,2.5935,2.5974,2.5973,2.5994,2.5993,2.6101,2.6012,2.6011,2.6011,2.6011,0,2.5464,2.552,2.5546,2.5586,2.5647,2.566,2.5721,2.5741,2.5773,2.5816,2.5816,2.5856,2.5873,2.5915,2.5926,2.5986,2.5998,2.6007,2.6009,2.6007,2.6005,2.6023,2.6017,2.6014,2.6013,2.6013,2.6012,0,2.5538,2.5558,2.5628,2.5669,2.568,2.5724,2.5759,2.5796,2.5813,2.5867,2.588,2.5906,2.5956,2.5974,2.6034,2.6041,2.6111,2.6109,2.6098,2.6098,2.6136,2.6132,2.6258,2.6275,2.6175,2.6176,2.6177,0,2.5593,2.5636,2.5681,2.571,2.5733,2.5779,2.5809,2.5823,2.5854,2.5901,2.5932,2.5982,2.6022,2.61,2.6124,2.617,2.6169,2.621,2.6176,2.6171,2.6168,2.6165,2.6169,2.6216,2.6217,2.6218,2.6219,0,2.5689,2.5696,2.5739,2.5786,2.5821,2.5859,2.5895,2.5918,2.5937,2.5972,2.6023,2.6054,2.6115,2.6163,2.6209,2.6231,2.6228,2.6229,2.624,2.6238,2.6229,2.6233,2.6114,2.6226,2.6225,2.6225,2.6224,2.6224,2.5754,2.5791,2.5829,2.5876,2.5905,2.5938,2.5975,2.5996,2.6039,2.609,2.6096,2.615,2.6185,2.6247,2.6271,2.6313,2.6301,2.6318,2.6322,2.6326,2.6328,2.6223,2.6321,2.6321,2.6321,2.6321,2.6321,0,2.5848,2.5872,2.5916,2.5966,2.6003,2.5997,2.6037,2.6068,2.6116,2.6149,2.6189,2.6246,2.6293,2.632,2.6366,2.6394,2.6394,2.6406,2.6403,2.6408,2.6336,2.6321,2.6405,2.6405,2.6405,2.6405,2.6405,2.6405,2.5902,2.5964,2.5975,2.6051,2.6074,2.6127,2.615,2.618,2.6207,2.6271,2.631,2.6327,2.6358,2.6406,2.6448,2.6455,2.6471,2.6484,2.649,2.6422,2.6413,2.6405,2.6391,2.6488,2.6488,2.6558,2.6559,2.6559]}]]